This demonstration page uses our WeatherBlox Daily Observations layout. Learn more.

Left ArrowRight Arrow

36.17497, -115.13722

Hourly Observations for November 18, 2021

Temp ( °F °C ) Dew Point ( °F °C ) Humidity (%) Winds ( mph kmh ) Pressure ( in mb ) Visibility ( mi km ) Precip ( " mm )
12:53 am 00:53 Clear 53 11.7 20 -6.7 27 27 WNW 3 6 30.21 1023 10 16 0.00 0.00
1:53 am 01:53 Clear 51 10.6 21 -6.1 31 31 W 6 9 30.22 1023 10 16 0.00 0.00
2:53 am 02:53 Clear 48 8.9 22 -5.6 36 36 NNW 6 9 30.21 1023 10 16 0.00 0.00
3:53 am 03:53 Clear 47 8.3 23 -5 39 39 NW 5 7 30.22 1024 10 16 0.00 0.00
4:53 am 04:53 Clear 46 7.8 22 -5.6 38 38 WNW 5 7 30.23 1024 10 16 0.00 0.00
5:53 am 05:53 Clear 47 8.3 22 -5.6 37 37 Calm 30.24 1024 10 16 0.00 0.00
6:53 am 06:53 Sunny 47 8.3 22 -5.6 37 37 NNW 3 6 30.26 1025 10 16 0.00 0.00
7:53 am 07:53 Sunny 52 11.1 23 -5 32 32 NW 3 6 30.27 1025 10 16 0.00 0.00
8:53 am 08:53 Sunny 57 13.9 19 -7.2 23 23 Calm 30.27 1025 10 16 0.00 0.00
9:53 am 09:53 Sunny 59 15 18 -7.8 20 20 ESE 6 9 30.27 1025 10 16 0.00 0.00
10:53 am 10:53 Sunny 62 16.7 17 -8.3 17 17 SE 5 7 30.25 1024 10 16 0.00 0.00
11:53 am 11:53 Sunny 63 17.2 14 -10 15 15 SE 8 13 30.21 1023 10 16 0.00 0.00
12:53 pm 12:53 Sunny 67 19.4 16 -8.9 14 14 ENE 6 9 30.18 1022 10 16 0.00 0.00
1:53 pm 13:53 Sunny 67 19.4 16 -8.9 14 14 SE 3 6 30.16 1022 10 16 0.00 0.00
2:53 pm 14:53 Sunny 67 19.4 18 -7.8 15 15 S 5 7 30.16 1021 10 16 0.00 0.00
3:53 pm 15:53 Sunny 67 19.4 18 -7.8 15 15 SE 5 7 30.16 1021 10 16 0.00 0.00
4:53 pm 16:53 Clear 65 18.3 18 -7.8 16 16 Calm 30.15 1021 10 16 0.00 0.00
5:53 pm 17:53 Clear 62 16.7 20 -6.7 20 20 Calm 30.16 1021 10 16 0.00 0.00
6:53 pm 18:53 Clear 60 15.6 20 -6.7 21 21 NE 3 6 30.16 1021 10 16 0.00 0.00
7:53 pm 19:53 Clear 59 15 23 -5 25 25 WSW 3 6 30.16 1021 10 16 0.00 0.00
8:53 pm 20:53 Clear 56 13.3 25 -3.9 30 30 NW 5 7 30.16 1022 10 16 0.00 0.00
9:53 pm 21:53 Clear 56 13.3 23 -5 28 28 Calm 30.16 1021 10 16 0.00 0.00
10:53 pm 22:53 Clear 54 12.2 23 -5 30 30 WNW 6 9 30.16 1021 10 16 0.00 0.00
11:53 pm 23:53 Clear 55 12.8 22 -5.6 28 28 NW 3 6 30.15 1021 10 16 0.00 0.00

Powered by AerisWeather